RH
15 21 25 37 45 45 41 38 37 38 37 38 44 40 38 41 44 47 52 56 57 62 58 49 42 40 42 47 58 64 67 66 56 50 49 46 50 54 63 67 69 70 70 73
12 16 20 32 41 41 40 37 39 34 34 37 41 40 38 39 39 42 46 54 58 61 58 49 47 41 38 40 42 51 60 62 59 52 53 57 57 57 66 69 75 84 75 64
11 12 16 22 29 34 36 36 40 34 29 31 35 37 38 36 36 36 42 46 54 55 59 50 49 43 38 37 39 40 44 51 57 55 59 61 62 64 63 71 77 80 72 64
9 11 13 16 20 25 29 36 36 29 29 32 30 38 34 33 34 37 37 41 44 50 54 52 48 45 39 34 37 40 40 40 41 48 53 56 54 56 60 70 69 64 69 64
9 9 11 12 13 17 21 36 30 26 31 29 29 36 28 32 28 30 35 33 37 45 49 50 46 46 39 36 35 37 38 40 40 41 41 45 50 53 56 60 72 71 68 64
9 9 9 11 13 21 18 26 25 24 26 32 28 34 26 25 29 28 28 31 34 40 45 48 49 47 40 42 45 42 39 40 43 41 41 43 46 49 52 61 74 74 77 68
8 9 10 12 14 16 17 18 23 23 25 24 22 26 23 22 24 25 26 29 35 38 45 48 48 48 43 40 44 48 53 52 48 43 45 45 45 48 52 58 64 68 75 74
10 11 12 13 15 18 15 14 16 17 20 17 21 20 19 24 24 25 25 28 35 39 46 49 49 53 48 42 43 48 52 57 56 56 46 45 48 49 51 55 64 73 73 69
11 12 13 15 15 14 14 12 12 15 15 13 14 18 19 25 27 28 27 27 32 37 44 44 45 53 52 48 45 47 49 51 55 58 64 49 48 50 51 54 67 81 78 74
12 14 12 13 13 13 12 12 12 12 12 13 17 22 25 26 28 28 26 27 32 37 40 41 43 44 48 50 46 46 47 51 53 55 60 56 53 54 55 60 68 71 80 86
14 15 14 14 14 14 14 13 14 13 14 16 17 20 20 22 26 28 25 25 30 37 37 40 41 39 46 48 43 45 45 47 49 49 58 65 59 64 61 70 70 74 80 82
13 15 14 15 16 17 16 15 16 16 12 17 19 17 20 24 27 26 24 23 30 34 41 38 40 40 40 42 42 45 46 46 54 62 84 85 72 58 66 64 69 68 81 80
14 15 17 17 19 22 18 17 17 17 16 17 17 17 20 25 24 24 24 23 27 33 36 35 36 37 40 39 40 44 47 51 57 68 64 75 72 68 66 57 57 60 56 62
19 22 19 20 23 24 24 19 18 18 18 17 19 18 20 26 26 25 25 22 25 33 33 34 36 38 40 39 41 44 47 53 55 61 57 67 73 69 66 63 61 64 59 57
22 21 23 26 24 27 26 27 21 24 24 27 30 28 30 32 28 26 29 30 25 28 32 34 36 40 43 45 42 44 47 54 58 56 48 54 77 73 64 59 57 62 57 61
24 27 30 29 27 29 34 35 36 37 39 41 39 35 36 34 35 35 36 35 32 31 32 38 41 41 43 45 48 53 53 57 59 64 64 54 71 66 56 54 58 60 55 58
31 31 31 30 31 28 32 36 38 41 42 42 39 40 40 38 37 43 42 41 39 34 33 34 41 41 43 44 45 52 52 46 54 70 70 62 61 61 55 54 58 59 55 57
35 35 33 31 31 32 27 36 40 42 44 45 46 45 45 44 40 41 42 42 41 41 38 32 32 35 40 47 44 42 48 49 52 44 65 62 58 52 56 55 60 60 59 57
37 38 39 38 36 34 34 35 37 37 39 41 44 43 42 41 43 42 41 45 47 46 44 45 37 33 38 44 46 40 40 46 52 56 57 57 60 55 55 59 62 59 61 61
43 40 38 41 35 38 31 34 35 36 37 34 37 40 41 41 42 46 43 47 51 50 47 46 40 41 36 46 50 49 49 52 51 49 55 61 65 63 55 56 60 60 61 57
52 51 43 45 39 35 32 35 38 39 35 34 35 37 37 39 38 41 43 42 42 40 39 40 41 37 43 45 56 49 48 49 53 58 62 65 68 64 61 59 60 66 62 60
38 48 51 49 47 43 40 37 39 38 38 39 41 36 38 41 41 42 42 41 39 37 37 36 39 41 46 48 48 52 46 49 52 57 61 71 75 87 82 71 71 71 61 64
39 37 39 38 41 40 41 40 39 39 40 41 44 43 44 44 42 39 38 37 36 35 36 45 48 50 56 64 59 60 65 55 58 66 66 78 78 97 94 89 80 70 66 67
38 39 41 39 39 41 42 42 41 41 43 45 44 43 40 37 36 33 33 33 35 39 40 43 49 51 51 51 53 54 66 63 63 73 78 75 74 76 89 96 87 75 67 69
37 39 42 42 42 42 41 41 41 42 44 46 44 39 36 34 32 31 31 35 36 41 47 47 46 42 40 43 50 59 62 66 70 72 74 74 77 75 83 96 86 77 72 73
39 40 42 43 42 44 43 43 43 42 43 42 40 37 34 30 31 32 31 33 35 41 48 48 47 46 41 42 49 49 50 57 62 66 75 77 82 85 98 94 84 82 79 75